Vertical_Velocity
2 -0 1 1 -1 0 1 8 5 2 6 3 -6 15 -1 -4 8 2 -3 4 -3 -4 2 2 11 3 -3 -1 1 3 2 -1 0 -4 -3 -4 -2 -3 0 -2 0 -1 -2
-1 1 1 1 -0 -1 -5 -1 5 9 11 13 5 3 26 2 2 2 9 0 -4 -2 -1 -1 16 3 -3 2 3 0 0 1 1 -0 1 -2 -3 -4 -3 -2 -0 -0 0
-0 0 0 2 2 2 -3 -1 10 -3 13 -3 -17 -11 -27 3 6 4 4 8 6 -2 2 2 4 13 -2 2 1 0 1 1 1 -3 -4 -0 1 2 0 -2 -2 -2 -1
-0 0 -0 -0 -1 3 1 -1 -6 2 3 11 -5 3 4 5 -13 -2 7 5 10 6 11 -5 2 3 6 2 -2 -0 -2 1 0 3 -2 -4 -2 -2 -0 -0 1 1 0
-2 -1 -1 -2 -1 -1 3 0 3 -5 -3 -0 2 -2 -1 5 2 4 -6 3 6 4 9 5 2 9 2 -1 -2 -3 -0 2 -3 -0 2 -0 -1 -1 0 0 1 2 -0
-2 -2 -2 -1 -2 -1 0 1 -0 2 -0 1 5 3 -3 3 2 0 3 -4 -5 9 10 -0 4 3 11 4 0 -3 2 -2 -1 -1 4 -2 -3 -1 -3 -2 -3 -1 -0
-3 -1 -2 -1 -1 -1 0 2 1 -1 2 -1 2 -0 1 -0 -1 -3 -2 -1 -6 -4 -1 14 2 2 5 5 7 -5 3 -2 -2 -2 -2 5 -4 -2 -2 -1 -1 -2 -1
-3 -1 -1 -3 -2 -3 -1 -0 1 1 -1 -3 0 1 -5 -9 -10 -11 3 -2 -0 1 -4 0 9 11 -5 2 1 1 9 -1 -1 0 1 3 -0 -1 -2 -2 -1 -0 -2
-3 0 2 -2 -2 -1 -2 -0 -0 0 -2 0 2 9 1 -3 3 -2 -1 -0 -3 -3 -1 -9 -2 11 4 -2 3 -2 4 -3 -7 -3 -1 2 -3 1 -1 -2 -4 -2 -3
-2 -0 -2 -3 -1 -2 1 1 2 2 1 -7 0 -5 8 -2 2 1 0 3 2 2 -3 -0 -3 -1 12 1 7 1 -2 -1 1 -1 -1 3 -0 1 2 -1 -1 -1 -2
-1 -2 -2 1 -1 -1 -1 1 0 -0 2 2 2 2 -1 -2 11 2 -5 -4 -2 2 -2 -7 1 0 -5 19 4 -5 2 3 -6 -15 -2 -2 3 -1 2 -2 -2 2 -2
-1 -2 0 0 -1 -1 -2 -3 -2 2 1 2 6 4 0 -0 -5 0 2 -6 -2 -6 1 -7 -2 -5 0 -9 3 21 0 -2 2 -2 8 1 -3 3 6 3 1 -1 -2
-3 0 -1 1 -1 -1 -1 1 -1 1 2 1 -0 -2 10 -4 4 5 4 -4 1 -0 1 -3 -3 -5 -2 18 -7 14 10 0 1 -7 6 9 3 -1 1 4 -0 -1 1
-2 -2 -2 -1 2 2 -0 1 -3 -4 -1 -1 0 -0 3 6 -6 4 -2 3 1 -4 -2 -2 -2 3 2 0 9 20 12 19 12 1 -2 25 13 4 1 -0 -0 -2 1
-1 -4 -0 -1 -2 -2 2 2 0 -1 -1 0 -2 -0 0 -1 6 5 1 -4 1 5 -8 -5 2 -1 -1 -4 -6 -2 -6 -8 24 6 8 19 31 -4 0 -3 0 1 1
2 2 2 0 -1 -2 -2 2 -2 -2 -0 1 -2 -2 1 1 2 6 5 -1 -2 -0 2 -3 1 1 -0 2 -2 -3 -1 -5 17 18 -11 5 7 6 -6 1 -2 -0 3
-1 1 1 2 1 0 1 -1 1 -1 -2 0 -0 -2 -1 1 -2 3 5 8 -2 1 -1 -2 -2 2 0 -1 1 1 -0 3 19 8 10 8 4 -0 0 2 0 1 0
-2 -4 -2 1 3 3 2 0 -2 -3 -2 -1 -2 2 -5 3 -2 -5 2 0 4 -0 8 -1 -1 2 -1 -1 0 5 2 -2 4 -3 13 14 12 1 4 2 3 1 -0
-1 -1 -2 -2 -2 -1 -2 2 1 -1 -2 -3 -1 3 -3 -1 3 -2 1 2 5 -0 7 3 -3 0 -2 2 -7 4 -3 3 2 -0 6 3 4 -1 1 2 2 0 4
1 2 2 1 0 -1 -0 3 3 1 -1 -1 0 -1 -3 -1 -2 13 -0 3 0 5 3 7 -1 3 2 4 -0 2 -2 0 -2 -0 6 -3 3 0 0 -0 -1 4 0
-1 -1 -1 1 1 1 -0 -1 2 0 1 -1 -2 -1 -1 -3 -2 -1 3 18 2 5 1 4 9 -1 -3 -4 -9 -4 -1 2 5 -1 -2 3 -0 0 1 -1 -1 2 -0
-1 -2 -1 -1 -2 -3 -3 -1 -2 0 -2 -5 -6 -3 -1 -3 -2 -6 3 9 2 2 0 1 8 -0 -0 3 -2 3 -1 -1 0 -0 3 -1 -2 -1 -0 2 2 0 -0
-0 -1 -2 1 -2 -0 -0 -0 -0 0 -1 0 -1 -1 -2 -2 -0 -2 3 9 -3 2 -0 3 -1 -1 -4 -6 1 1 0 6 -3 -3 3 -1 -1 1 1 2 -1 -3 -2
-1 -0 -1 0 0 -2 1 1 1 2 -2 -2 -2 -1 -2 -3 0 4 14 -0 12 2 1 0 -0 10 6 5 12 12 6 3 6 4 1 0 2 -0 -0 -2 -0 1 1
-3 0 1 0 0 -1 2 2 3 3 0 -2 -0 -1 -3 -2 -1 3 4 0 -1 3 -10 12 5 7 13 -10 -2 5 1 1 1 -1 1 -0 -1 -1 -2 -1 -0 -1 -0
-3 -1 -3 1 1 -3 1 0 4 3 4 -1 2 -2 -0 -3 2 6 6 -6 9 -10 -9 -1 8 6 -7 6 6 8 5 -4 -0 3 -1 -3 -1 -1 0 1 -0 -1 1
Height
1517 1515 1513 1512 1511 1510 1509 1510 1511 1512 1513 1513 1515 1518 1519 1522 1524 1526 1529 1529 1529 1531 1533 1534 1534 1535 1537 1537 1538 1539 1540 1541 1542 1543 1544 1546 1548 1549 1551 1552 1554 1554 1554
1516 1514 1512 1510 1508 1508 1506 1506 1506 1507 1508 1509 1508 1513 1515 1518 1521 1525 1526 1526 1525 1528 1530 1531 1532 1533 1534 1536 1537 1538 1539 1539 1540 1540 1542 1543 1545 1547 1550 1551 1552 1553 1554
1516 1513 1511 1509 1508 1507 1505 1505 1505 1506 1506 1506 1499 1509 1511 1515 1514 1519 1521 1522 1522 1524 1526 1526 1530 1530 1532 1534 1535 1536 1537 1537 1537 1538 1541 1543 1544 1546 1547 1549 1550 1551 1553
1514 1511 1509 1508 1506 1505 1504 1504 1504 1503 1503 1503 1508 1504 1505 1508 1511 1514 1516 1517 1518 1519 1521 1522 1525 1526 1528 1531 1532 1534 1534 1535 1536 1537 1538 1541 1543 1544 1546 1547 1549 1550 1551
1512 1510 1507 1505 1504 1503 1503 1502 1501 1501 1501 1502 1502 1502 1504 1506 1506 1509 1511 1511 1513 1515 1518 1520 1522 1523 1525 1525 1529 1531 1532 1533 1534 1536 1537 1538 1541 1543 1545 1546 1548 1548 1549
1510 1507 1505 1503 1501 1500 1499 1500 1498 1498 1498 1498 1499 1499 1500 1502 1502 1504 1504 1506 1509 1510 1513 1516 1518 1520 1521 1522 1525 1527 1529 1530 1531 1533 1535 1535 1539 1540 1543 1544 1545 1547 1548
1508 1505 1502 1500 1499 1497 1495 1495 1495 1495 1494 1494 1494 1494 1494 1496 1497 1498 1499 1502 1504 1506 1507 1511 1512 1516 1516 1519 1520 1523 1525 1526 1528 1530 1532 1532 1535 1537 1540 1542 1543 1545 1546
1506 1503 1500 1497 1495 1493 1492 1491 1491 1491 1490 1491 1491 1489 1491 1492 1491 1494 1493 1496 1498 1499 1501 1504 1507 1509 1511 1514 1516 1517 1521 1522 1525 1526 1529 1530 1531 1533 1536 1539 1541 1543 1545
1504 1500 1497 1494 1491 1490 1488 1486 1486 1486 1485 1485 1486 1488 1487 1487 1488 1487 1488 1489 1492 1494 1496 1496 1500 1502 1505 1508 1510 1513 1516 1519 1520 1523 1525 1527 1528 1531 1532 1535 1537 1540 1541
1500 1497 1494 1491 1488 1486 1484 1482 1481 1481 1481 1482 1482 1482 1482 1484 1484 1484 1484 1485 1486 1486 1487 1489 1492 1494 1497 1500 1503 1505 1510 1512 1515 1519 1522 1524 1524 1527 1528 1531 1534 1536 1537
1495 1492 1489 1486 1483 1481 1479 1476 1475 1476 1476 1476 1477 1477 1478 1479 1479 1481 1481 1480 1480 1481 1482 1484 1485 1489 1490 1488 1493 1496 1501 1505 1508 1513 1516 1520 1520 1523 1524 1527 1530 1533 1533
1489 1486 1483 1481 1478 1476 1474 1472 1470 1470 1469 1469 1470 1472 1472 1473 1475 1476 1476 1477 1477 1476 1478 1479 1479 1481 1483 1483 1486 1487 1491 1496 1500 1504 1509 1512 1516 1518 1521 1524 1526 1529 1529
1482 1479 1477 1475 1472 1470 1468 1466 1465 1462 1461 1462 1464 1466 1467 1467 1470 1471 1471 1472 1472 1473 1472 1473 1474 1476 1477 1477 1480 1481 1483 1487 1492 1497 1502 1504 1509 1514 1517 1520 1522 1524 1525
1475 1472 1469 1467 1465 1463 1462 1460 1458 1457 1455 1455 1456 1458 1460 1461 1463 1463 1465 1468 1467 1468 1467 1468 1469 1470 1472 1474 1475 1478 1480 1483 1488 1490 1497 1499 1502 1507 1511 1516 1517 1518 1520
1467 1464 1462 1459 1457 1456 1454 1453 1451 1449 1449 1449 1449 1450 1453 1455 1456 1457 1458 1460 1462 1463 1463 1463 1464 1465 1467 1470 1472 1476 1478 1481 1482 1486 1491 1496 1496 1501 1504 1508 1512 1514 1513
1460 1456 1454 1451 1449 1448 1447 1445 1444 1443 1442 1442 1443 1444 1445 1448 1450 1451 1451 1453 1455 1458 1459 1459 1460 1461 1462 1464 1466 1470 1474 1477 1479 1481 1489 1490 1492 1494 1499 1504 1506 1509 1509
1452 1448 1446 1443 1442 1441 1440 1438 1436 1436 1434 1435 1437 1437 1438 1440 1442 1444 1446 1447 1448 1451 1453 1454 1455 1456 1458 1461 1463 1467 1469 1473 1474 1478 1481 1484 1486 1491 1495 1499 1501 1503 1504
1446 1442 1439 1436 1434 1432 1431 1431 1430 1428 1428 1428 1429 1429 1430 1433 1434 1437 1439 1440 1441 1444 1446 1447 1449 1451 1453 1456 1459 1462 1466 1469 1472 1476 1478 1481 1484 1488 1492 1495 1497 1498 1499
1440 1436 1433 1430 1427 1424 1423 1422 1422 1420 1420 1420 1420 1420 1422 1426 1427 1429 1431 1432 1435 1437 1439 1439 1443 1446 1449 1451 1454 1456 1461 1465 1470 1470 1477 1480 1481 1485 1489 1491 1493 1494 1495
1433 1429 1425 1422 1419 1417 1415 1413 1412 1411 1412 1411 1412 1411 1414 1416 1418 1421 1423 1425 1428 1429 1432 1435 1437 1441 1443 1446 1449 1453 1457 1461 1464 1468 1471 1475 1478 1481 1484 1486 1488 1490 1492
1425 1421 1417 1413 1411 1409 1407 1406 1406 1405 1403 1402 1402 1403 1405 1407 1409 1412 1414 1416 1420 1422 1424 1427 1429 1433 1437 1440 1445 1448 1452 1456 1460 1464 1467 1469 1473 1477 1479 1482 1485 1486 1486
1419 1414 1410 1406 1403 1401 1399 1399 1398 1397 1396 1395 1393 1394 1395 1398 1400 1401 1405 1409 1412 1414 1417 1420 1421 1425 1430 1435 1439 1442 1447 1452 1456 1460 1462 1465 1469 1473 1477 1478 1479 1480 1480
1411 1407 1403 1399 1396 1393 1392 1391 1391 1389 1388 1386 1386 1385 1386 1387 1391 1394 1396 1399 1403 1406 1410 1414 1415 1420 1424 1429 1434 1437 1442 1447 1449 1455 1458 1461 1466 1469 1471 1473 1474 1476 1477
1404 1400 1395 1392 1388 1385 1384 1383 1381 1380 1378 1376 1375 1376 1377 1378 1381 1385 1387 1391 1393 1398 1402 1407 1409 1414 1420 1425 1428 1433 1437 1442 1447 1451 1455 1459 1462 1465 1467 1470 1472 1473 1473
1398 1394 1389 1385 1381 1377 1375 1373 1372 1370 1368 1366 1365 1366 1367 1368 1371 1376 1380 1383 1386 1390 1395 1400 1406 1410 1415 1421 1425 1429 1432 1437 1443 1448 1451 1455 1459 1463 1465 1467 1468 1469 1469
1391 1387 1382 1378 1374 1369 1367 1365 1364 1362 1359 1357 1356 1356 1357 1359 1362 1366 1370 1375 1377 1384 1387 1394 1399 1405 1411 1416 1421 1425 1429 1434 1439 1445 1449 1454 1457 1460 1463 1463 1464 1465 1466